Content
SEND FEEDBACK

Daily
Averages
Monthly
Summary
French Polynesia

PAPEETE, FRENCH POLYNESIA


Home > Oceania > French Polynesia
Elevation: 2 meters     Latitude: 17 33S     Longitude: 149 36W

WEATHER
 
SELECT A DAY
Number of Records: 208,190;   Date Range: 6/30/96 - 7/27/14
 
SHARE

PRINT THIS DATA

[ ← Previous Day ]
WEATHER ALMANAC - 7 FEBRUARY, 2013
[ Next Day → ]
[ °F ]   °C
Weather ElementAverageHighLow
Temperature28.4 °C31 °C (1:00 pm)26 °C (1:00 am)
Dewpoint24 °C25 °C (1:30 am)22 °C (9:30 am)
Humidity76.2 %89 % (1:30 am)62 % (2:00 pm)
Barometer1009.8 hPa1012.2 hPa (10:30 pm)1008.1 hPa (2:30 am)
Wind Speed25.7 km/h57.6 km/h (5:00 am)
Wind Gust61.2 km/h (9:30 am)
Weather ElementAverage
Visibility11.3 km
Wind DirectionENE (66.3 °)

Weather ElementTotal
Precipitation---
Cooling Degree Days10.2 (Base 18.3)
Growing Degree Days18.5 (Base 10)
Averaged from 54 records on 7 February, 2013
WEATHER CONDITIONS BREAKOUT
WIND DIRECTION BREAKOUT
WEATHER BY HOUR - 7 FEBRUARY, 2013
[ °F ]   °C
Local TimeTemperatureDewpointHumidityBarometerVisibilityWind DirectionWind SpeedGust SpeedPrecipitationEventsConditions
12:30 AM28 °C24 °C79 %1009.1 hPa10 kmNNE (30°)24.1 km/hMostly Cloudy
1:00 AM26 °C23 °C83 %1009.1 hPa10 kmNorth (350°)20.4 km/hMostly Cloudy
1:30 AM27 °C25 °C89 %1009.1 hPa10 kmNorth (10°)18.5 km/hMostly Cloudy
2:00 AM27.8 °C24.4 °C77 %1009.1 hPa19.3 kmNorth20.4 km/hPartly Cloudy
2:00 AM28 °C24 °C79 %1009.1 hPa10 kmNorth (360°)20.4 km/hMostly Cloudy
2:30 AM28 °C25 °C84 %1008.1 hPa10 kmNorth (360°)24.1 km/hMostly Cloudy
3:00 AM28 °C25 °C84 %1008.1 hPa10 kmNorth (360°)27.8 km/hMostly Cloudy
3:30 AM28 °C24 °C79 %1008.1 hPa10 kmNorth (10°)25.9 km/hOvercast
4:00 AM28 °C24 °C79 %1008.1 hPa10 kmNorth (10°)29.6 km/hMostly Cloudy
4:30 AM28 °C24 °C79 %1008.1 hPa10 kmNorth (10°)33.3 km/hMostly Cloudy
5:00 AM27.8 °C23.9 °C75 %1008.8 hPa29 kmNorth (10°)57.6 km/hClear
5:00 AM28 °C24 °C79 %1008.1 hPa10 kmNorth (10°)29.6 km/hOvercast
5:30 AM28 °C24 °C79 %1008.1 hPa10 kmNorth (10°)33.3 km/hOvercast
6:00 AM28 °C24 °C79 %1009.1 hPa10 kmNNE (20°)27.8 km/hOvercast
6:30 AM28 °C24 °C79 %1009.1 hPa10 kmNNE (20°)25.9 km/hOvercast
7:00 AM28 °C24 °C79 %1010.2 hPa10 kmNNE (20°)22.2 km/hMostly Cloudy
7:30 AM28 °C24 °C79 %1010.2 hPa10 kmNorth (360°)29.6 km/hMostly Cloudy
8:00 AM28.3 °C23.3 °C68 %1011.2 hPa25.7 kmNorth (10°)25.9 km/hPartly Cloudy
8:00 AM28 °C23 °C74 %1010.2 hPa10 kmNorth (10°)25.9 km/hMostly Cloudy
8:30 AM28 °C24 °C79 %1011.2 hPa10 kmNNE (20°)25.9 km/hMostly Cloudy
9:00 AM29 °C24 °C74 %1011.2 hPa10 kmNNE (20°)27.8 km/hMostly Cloudy
9:30 AM28 °C22 °C70 %1011.2 hPa1.9 kmNorth (360°)31.5 km/h61.2 km/hRainLight Rain Showers
10:00 AM28 °C24 °C79 %1011.2 hPa10 kmNNE (30°)22.2 km/hMostly Cloudy
10:30 AM29 °C23 °C70 %1010.2 hPa10 kmNE (50°)18.5 km/hOvercast
11:00 AM29.4 °C23.9 °C66 %1011.2 hPa19.3 kmNNE (20°)25.9 km/hOvercast
11:00 AM29 °C24 °C74 %1010.2 hPa10 kmNNE (20°)25.9 km/hOvercast
11:30 AM29 °C24 °C74 %1010.2 hPa10 kmNorth (10°)29.6 km/hOvercast
12:00 PM30 °C24 °C70 %1010.2 hPa10 kmNorth (10°)27.8 km/hOvercast
12:30 PM30 °C24 °C70 %1010.2 hPa10 kmNorth (10°)29.6 km/hMostly Cloudy
1:00 PM31 °C25 °C70 %1009.1 hPa10 kmNorth (10°)25.9 km/hMostly Cloudy
1:30 PM30 °C24 °C70 %1009.1 hPa10 kmNorth (10°)31.5 km/hMostly Cloudy
2:00 PM30 °C23.9 °C62 %1009.8 hPa19.3 kmNorth (10°)27.8 km/hPartly Cloudy
2:00 PM30 °C24 °C70 %1009.1 hPa10 kmNorth (10°)27.8 km/hMostly Cloudy
2:30 PM30 °C25 °C74 %1009.1 hPa10 kmNorth (10°)27.8 km/hMostly Cloudy
3:00 PM30 °C24 °C70 %1009.1 hPa10 kmNorth (10°)25.9 km/hMostly Cloudy
3:30 PM29 °C24 °C74 %1009.1 hPa10 kmNorth (10°)25.9 km/hMostly Cloudy
4:15 PM29 °C24 °C74 %1009.1 hPa10 kmNorth (10°)24.1 km/hScattered Clouds
4:30 PM29 °C24 °C74 %1009.1 hPa10 kmNNE (20°)22.2 km/hScattered Clouds
5:00 PM28.9 °C24.4 °C70 %1009.5 hPa19.3 kmNNE (20°)50.4 km/hOvercast
5:00 PM29 °C24 °C74 %1009.1 hPa10 kmNNE (20°)25.9 km/hScattered Clouds
5:30 PM29 °C24 °C74 %1009.1 hPa10 kmNNE (20°)22.2 km/hScattered Clouds
6:00 PM29 °C24 °C74 %1009.1 hPa10 kmNorth (10°)24.1 km/hScattered Clouds
6:30 PM28 °C24 °C79 %1010.2 hPa10 kmNNE (20°)22.2 km/hScattered Clouds
7:00 PM28 °C24 °C79 %1010.2 hPa10 kmNorth (10°)22.2 km/hMostly Cloudy
8:00 PM28.3 °C24.4 °C73 %1011.2 hPa14.5 kmNNE (20°)20.4 km/hPartly Cloudy
8:00 PM28 °C24 °C79 %1011.2 hPa10 kmNNE (20°)20.4 km/hMostly Cloudy
8:30 PM28 °C24 °C79 %1011.2 hPa10 kmNorth (10°)20.4 km/hScattered Clouds
9:00 PM28 °C24 °C79 %1011.2 hPa10 kmNNE (20°)20.4 km/hScattered Clouds
9:30 PM28 °C24 °C79 %1011.2 hPa10 kmNNE (20°)22.2 km/hMostly Cloudy
10:00 PM28 °C25 °C84 %1011.2 hPa10 kmNNE (20°)20.4 km/hMostly Cloudy
10:30 PM28 °C25 °C84 %1012.2 hPa10 kmNorth (360°)22.2 km/hMostly Cloudy
11:00 PM27.2 °C23.9 °C78 %1012.2 hPa14.5 kmNorth18.5 km/hOvercast
11:00 PM27 °C24 °C84 %1012.2 hPa10 kmNorth (360°)18.5 km/hMostly Cloudy
11:30 PM27 °C23 °C79 %1011.2 hPa10 kmNNE (30°)11.1 km/hMostly Cloudy
Hourly data recorded from NTAA, located 0 kilometers away from Papeete, French Polynesia







STORIES FROM OUR PARTNERS